Location: ??????
(56.0120°N, 39.1740°E)
Time: 11:18:41
(UTC+00:00)

Cosmos 1674 Rocket - Pass Details

Date: 14 April 2026
Orbit: 596 x 622 km, 82.5° (Epoch: 10 May)

Event Time Altitude Azimuth Distance (km) Brightness Sun altitude
Rises 18:40:08 0° 346° (NNW) 2,858 8.1 -16.2°
Reaches altitude 10° 18:42:21 10° 343° (NNW) 1,952 7.1 -16.4°
Maximum altitude 18:46:38 66° 262° (W) 659 3.8 -16.8°
Enters shadow 18:49:13 23° 185° (S) 1,293 4.8 -17.0°
